Location: Crescent
(42.8242°N, 73.7329°W)
Time: 08:24:33
(UTC+00:00)

Vanguard 1 Rocket - Pass Details

Date: 24 February 2026
Orbit: 653 x 4214 km, 34.3° (Epoch: 12 March)

Event Time Altitude Azimuth Distance (km) Brightness Sun altitude
Rises 16:27:48 0° 228° (SW) 3,442 10.7 37.1°
Reaches altitude 10° 16:30:02 10° 219° (SW) 2,735 10.5 37.2°
Maximum altitude 16:36:02 37° 153° (SSE) 2,017 11.3 37.4°
Drops below altitude 10° 16:46:30 10° 92° (E) 4,791 11.3 37.7°
Sets 16:51:51 0° 86° (E) 6,427 11.8 37.8°
